Flag for Vietnam Weather past 2 weeks in Hanoi, Vietnam

Now
59 °F

Clear.


Feels Like: 58 °F
Forecast: 54 / 66 °F
Wind: 6 mph from North

Location: Ha Noi Airport

Current Time: Dec 22, 2014 at 12:45:46 AM

Latest Report: Dec 22, 2014 at 12:00 AM


Visibility: 10 mi

Pressure: 30.30 "Hg

Humidity: 51%

Dew point: 41 °F

Location of HanoiLocation

Historic Weather in Hanoi — Graph

°F

Hanoi temperature yesterday

Maximum temperature yesterday: 70 °F (at 3:00 PM)
Minimum temperature yesterday: 54 °F (at 3:00 AM)
Average temperature yesterday: 61 °F

Past Weeks' High & Low Weather Summary

 TemperatureHumidityPressure
High72 °F (Dec 8, 1:30 PM)100% (Dec 7, 1:30 AM)30.45 "Hg (Dec 7, 1:30 AM)
Low48 °F (Dec 18, 4:30 AM)19% (Dec 18, 2:00 PM)30.01 "Hg (Dec 20, 6:00 PM)
Average62 °F63%30.20 "Hg
* Reported Dec 6 11:00 PM — Dec 21 11:30 PM, Hanoi, Weather by CustomWeather, © 2014

Note: Actual official high and low records may vary slightly from our data, if they occured in-between our weather recording intervals... More about our weather records

Advertising

Hanoi weather history for previous 24 hours

 ConditionsComfort  
Time TempWeatherWind HumidityBarometerVisibility
11:30 PM
Dec 21
59 °FClear.7 mph51%30.30 "Hg10 mi
11:00 PM59 °FClear.7 mph55%30.33 "Hg10 mi
10:30 PM59 °FClear.7 mph55%30.33 "Hg10 mi
10:00 PM59 °FClear.7 mph55%30.33 "Hg10 mi
9:30 PM61 °FClear.6 mph52%30.33 "Hg10 mi
9:00 PM61 °FClear.9 mph55%30.33 "Hg10 mi
8:30 PM63 °FClear.9 mph49%30.30 "Hg10 mi
8:00 PM63 °FClear.10 mph49%30.30 "Hg10 mi
7:30 PM63 °FClear.9 mph49%30.27 "Hg10 mi
7:00 PM64 °FClear.9 mph46%30.27 "Hg10 mi
6:30 PM64 °FClear.10 mph46%30.27 "Hg10 mi
6:00 PM66 °FClear.8 mph43%30.24 "Hg10 mi
5:30 PM66 °FClear.9 mph46%30.24 "Hg10 mi
5:00 PM66 °FClear.6 mph46%30.21 "Hg6 mi
4:30 PM68 °FPassing clouds.8 mph43%30.21 "HgN/A
4:00 PM68 °FPassing clouds.9 mph43%30.21 "HgN/A
3:30 PM68 °FClear.8 mph43%30.21 "Hg5 mi
3:00 PM70 °FSunny.13 mph38%30.21 "Hg10 mi
2:30 PM68 °FPassing clouds.7 mph43%30.21 "HgN/A
2:00 PM68 °FPassing clouds.12 mph43%30.21 "HgN/A
1:30 PM68 °FSunny.12 mph43%30.24 "Hg10 mi
1:00 PM66 °FPassing clouds.12 mph46%30.24 "HgN/A
12:30 PM66 °FPassing clouds.10 mph46%30.27 "HgN/A
12:00 PM66 °FPassing clouds.10 mph49%30.27 "HgN/A
11:30 AM64 °FPassing clouds.8 mph49%30.30 "HgN/A
11:00 AM64 °FPassing clouds.9 mph52%30.30 "HgN/A
10:30 AM64 °FClear.8 mph56%30.30 "Hg6 mi
10:00 AM64 °FClear.5 mph60%30.30 "Hg4 mi
9:30 AM63 °FClear.6 mph68%30.30 "Hg3 mi
9:00 AM61 °FFog.7 mph77%30.30 "Hg2 mi
8:30 AM57 °FFog.5 mph82%N/A2 mi
8:00 AM55 °FFog.6 mph88%30.24 "Hg2 mi
7:30 AM54 °FFog.No wind94%30.24 "Hg2 mi
7:00 AM54 °FFog.5 mph88%30.21 "Hg2 mi
6:30 AM57 °FFog.9 mph77%30.18 "Hg2 mi
6:00 AM55 °FFog.2 mph82%30.15 "Hg3 mi
5:30 AM54 °FFog.5 mph88%30.15 "Hg2 mi
4:30 AM55 °FFog.5 mph88%30.09 "Hg1 mi
4:00 AM55 °FFog.5 mph88%30.09 "Hg2 mi
3:30 AM55 °FFog.6 mph88%30.09 "Hg2 mi
3:00 AM54 °FFog.5 mph88%30.09 "Hg2 mi
2:30 AM55 °FFog.5 mph88%30.09 "Hg2 mi
2:00 AM55 °FFog.6 mph88%30.09 "Hg2 mi
1:30 AM57 °FFog.5 mph82%30.09 "Hg2 mi
1:00 AM55 °FFog.6 mph82%30.09 "Hg2 mi
12:30 AM57 °FFog.6 mph82%30.09 "Hg1 mi
12:00 AM55 °FFog.5 mph82%30.09 "Hg2 mi
Weather by CustomWeather, © 2014

See weather overviewHow to use our weather pages